Torna al catalogo

COSMOS 1911

AttivoMilitarePO
NORAD 18790·PAYLOAD·🇷🇺 Russia

Lanciato Jan 15, 1988 da Plesetsk Cosmodrome

Loading…

Prossimi Passaggi (prossime 24 ore)

TLE

AggiornatoSource: Space-Track

Epoca: Sep 14, 2026, 05:44 UTC

1 18790U 88002C   26257.23907862  .00000019  00000-0  45342-4 0  9994
2 18790  82.6119 191.7259 0006336 297.5244 239.8542 12.64386242784201

Traccia COSMOS 1911 in tempo reale con AllMySat

Download on the App Store